Simultaneous Nadir Overpasses (SNOs) Predictions

Prediction of SNOs between NOAA-19 and NPP Satellite Orbit:

Table of predicted SNOs for the next 14.0 days since TLE Epoch: 8/24/2014
Index Date (NOAA-19) Time (NOAA-19) Lat,Lon (NOAA-19) SZA (NOAA-19 ) Date (NPP) Time (NPP) Lat,Lon (NPP) SZA (NPP ) Distance(km) Time Diff (sec)
1 09/01/2014 05:15:14 -81.00,-131.51 103.71 09/01/2014 05:16:16 -81.00,-131.63 103.72 2.12 62
2 09/01/2014 06:06:16 81.00, 35.74 76.31 09/01/2014 06:07:01 81.00, 35.81 76.27 1.28 45
3 09/01/2014 06:57:17 -80.99,-156.85 103.71 09/01/2014 06:57:46 -81.00,-157.00 103.70 2.64 29
4 09/01/2014 07:48:18 80.99, 10.78 76.26 09/01/2014 07:48:30 80.98, 10.82 76.24 0.75 12
5 09/01/2014 08:39:19 -80.98, 178.19 103.76 09/01/2014 08:39:15 -80.99, 178.01 103.73 3.13 4
6 09/01/2014
